Home > Weather > Guiyang > Past weeks

Flag for China Weather for the Past 2 Weeks in Guiyang, Guizhou, China

Now
32 °F

Light rain. Ice fog.


Feels Like: 29 °F
Forecast: 30 / 44 °F
Wind: 3 mph from Northeast

Location: Guiyang Airport

Current Time: Feb 14, 2016 at 11:47:58 PM

Latest Report: Feb 14, 2016 at 11:00 PM


Visibility: 3 mi

Pressure: 30.42 "Hg (26.62 "Hg at 1067m altitude)

Humidity: 100%

Dew point: 32 °F

Location of GuiyangLocation

Historic Weather in Guiyang — Graph

°F

Guiyang Temperature Yesterday

Maximum temperature yesterday: 66 °F (at 4:00 PM)
Minimum temperature yesterday: 46 °F (at 8:00 AM)
Average temperature yesterday: 56 °F

High & Low Weather Summary for the Past Weeks

 TemperatureHumidityPressure
High79 °F (Feb 12, 3:00 PM)100% (Jan 31, 3:00 AM)30.51 "Hg (Jan 31, 3:00 AM)
Low27 °F (Feb 7, 6:00 AM)22% (Feb 8, 4:00 PM)29.59 "Hg (Feb 12, 3:00 PM)
Average44 °F73%30.13 "Hg
* Reported Jan 30 10:00 PM — Feb 14 10:00 PM, Guiyang, Weather by CustomWeather, © 2016

Note: Actual official high and low records may vary slightly from our data, if they occured in-between our weather recording intervals... More about our weather records

Advertising

Guiyang Weather History for the Previous 24 Hours

 ConditionsComfort  
Time TempWeatherWind HumidityBarometerVisibility
10:00 PM
Sun, Feb 14
32 °FLight rain. Ice fog.10 mph93%30.42 "Hg3 mi
9:00 PM34 °FLight rain. Mostly cloudy.10 mph87%30.36 "Hg4 mi
8:00 PM34 °FMostly cloudy.8 mph87%30.33 "HgN/A
7:00 PM36 °FMostly cloudy.8 mph81%30.27 "HgN/A
6:00 PM36 °FMostly cloudy.13 mph81%30.24 "HgN/A
5:00 PM34 °FMostly cloudy.13 mph87%30.24 "HgN/A
4:00 PM34 °FMostly cloudy.13 mph87%30.24 "HgN/A
3:00 PM36 °FMostly cloudy.13 mph81%30.24 "HgN/A
2:00 PM36 °FDrizzle. Mostly cloudy.13 mph81%30.24 "HgN/A
1:00 PM36 °FMostly cloudy.10 mph81%30.27 "HgN/A
12:00 PM36 °FMostly cloudy.10 mph81%30.27 "HgN/A
11:00 AM36 °FMostly cloudy.13 mph87%30.27 "HgN/A
10:00 AM36 °FMostly cloudy.10 mph87%30.24 "HgN/A
9:00 AM36 °FMostly cloudy.10 mph87%30.21 "HgN/A
8:00 AM36 °FMostly cloudy.10 mph93%30.18 "HgN/A
7:00 AM36 °FDrizzle. Mostly cloudy.10 mph93%30.15 "HgN/A
6:00 AM37 °FDrizzle. Mostly cloudy.13 mph87%30.12 "HgN/A
5:00 AM37 °FDrizzle. Mostly cloudy.13 mph93%30.12 "HgN/A
4:00 AM39 °FMostly cloudy.10 mph87%30.12 "HgN/A
3:00 AM39 °FDrizzle. Mostly cloudy.10 mph93%30.09 "HgN/A
2:00 AM41 °FDrizzle. Mostly cloudy.10 mph93%30.09 "Hg4 mi
1:00 AM43 °FLight rain. Fog.13 mph100%30.09 "Hg2 mi
12:00 AM46 °FLight rain. Fog.8 mph93%30.07 "Hg2 mi
11:00 PM
Sat, Feb 13
52 °FMostly cloudy.8 mph82%30.07 "Hg5 mi
Weather by CustomWeather, © 2016

See weather overviewHow to use our weather pages